Weather in Mayachny

Russia / Orenburg Oblast     51°05′42″N   57°30′42″E
temp.,
°C
wind,
m/s
gust,
m/s
humid.,
%
clouds,
%
prec.,
mm/h
press.,
hPa
HPBL,
m
17 may, mon
mon1723:00+21e22395 0.0 102111
02:00+19sse334022 0.0 102124
05:00+19ese114067 0.0 102111
08:00+23e113958 0.0 1022115
11:00+28e223069 0.0 1021705
14:00+30nne132132 0.0 10203509
17:00+18ne81369100 0.8 1022179
20:00+19ese4967100 0.1 1020183
18 may, tue
tue1823:00+17e33639 0.1 101924
02:00+16e336413 0.0 101926
05:00+15sse117212 0.0 101811
08:00+19n115810 0.0 1018156
11:00+24ene224316 0.0 1017732
14:00+28ne34322 0.0 10152052
17:00+28ne33305 0.0 10142373
20:00+20nne28685 0.0 1015182
19 may, wed
wed1923:00+19ese33645 0.0 101423
02:00+17n226117 0.0 101411
05:00+16ne33675 0.1 101449
08:00+17ene9147412 0.3 1015573
11:00+21ene910582 0.4 10161185
14:00+23ene99470 0.0 10171553
17:00+23e89410 0.0 10171822
20:00+19e611530 0.0 1018458
20 may, thu
thu2023:00+15ese513560 0.0 1020325
02:00+13e413610 0.0 1020316
05:00+11e413670 0.0 1021264
08:00+15ese712550 0.0 1022919
11:00+20ese810405 0.0 10221500
14:00+22ese79335 0.0 10211923
17:00+23ese78300 0.0 10211988
20:00+19ese49470 0.0 1021167
21 may, fri
fri2123:00+15ese412510 0.0 1022195
02:00+14ese411530 0.0 1022189
05:00+12ese410580 0.0 1023150
08:00+17ese611510 0.0 1023438
11:00+22se67340 0.0 10231447
14:00+24se55280 0.0 10222227
17:00+25se44270 0.0 10222408
20:00+21se33420 0.0 102331